Location: Ferchesar
(52.6477°N, 12.4298°E)
Time: 22:35:37
(UTC+01:00)

TIGRISAT - Pass Details

Date: 22 October 2021
Orbit: 603 x 689 km, 97.7° (Epoch: 30 November)

Event Time Altitude Azimuth Distance (km) Brightness Sun altitude
Rises 05:41:31 0° 119° (ESE) 3,056 ? -19.9°
Reaches altitude 10° 05:44:18 10° 102° (ESE) 2,140 ? -19.5°
Maximum altitude 05:47:34 19° 57° (ENE) 1,610 ? -19.0°
Drops below altitude 10° 05:50:49 10° 13° (NNE) 2,130 ? -18.5°
Sets 05:53:35 0° 356° (N) 3,037 ? -18.1°
